| time (UTC) | temp F | wind direction | speed MPH | gust MPH | rain 1hr in | rain 24hr in | rain mn in | humidity % | barometer mb |
| 20260504220910 | 81 | 268 | 9.0 | 20.0 | 0.00 | 0.00 | 0.00 | 27 | |
| 20260504220409 | 81 | 268 | 9.0 | 20.0 | 0.00 | 0.00 | 0.00 | 27 | |
| 20260504220359 | 81 | 252 | 11.0 | 20.0 | 0.00 | 0.00 | 0.00 | 27 | |
| 20260504215926 | 81 | 240 | 11.0 | 20.0 | 0.00 | 0.00 | 0.00 | 28 | |
| 20260504215909 | 81 | 252 | 11.0 | 20.0 | 0.00 | 0.00 | 0.00 | 27 | |
| 20260504215429 | 82 | 254 | 10.0 | 16.0 | 0.00 | 0.00 | 0.00 | 28 | |
| 20260504215409 | 81 | 240 | 11.0 | 20.0 | 0.00 | 0.00 | 0.00 | 28 | |
| 20260504215021 | 82 | 248 | 10.0 | 15.0 | 0.00 | 0.00 | 0.00 | 28 | |
| 20260504214909 | 82 | 254 | 10.0 | 16.0 | 0.00 | 0.00 | 0.00 | 28 | |
| 20260504214409 | 82 | 248 | 10.0 | 15.0 | 0.00 | 0.00 | 0.00 | 28 | |
| 20260504213947 | 82 | 275 | 8.0 | 16.0 | 0.00 | 0.00 | 0.00 | 27 | |
| 20260504213909 | 82 | 266 | 8.0 | 14.0 | 0.00 | 0.00 | 0.00 | 27 | |
| 20260504213421 | 83 | 270 | 9.0 | 16.0 | 0.00 | 0.00 | 0.00 | 28 | |
| 20260504213410 | 82 | 275 | 8.0 | 16.0 | 0.00 | 0.00 | 0.00 | 27 | |
| 20260504212923 | 83 | 267 | 7.0 | 12.0 | 0.00 | 0.00 | 0.00 | 28 | |
| 20260504212909 | 83 | 270 | 9.0 | 16.0 | 0.00 | 0.00 | 0.00 | 28 | |
| 20260504212255 | 83 | 271 | 3.0 | 10.0 | 0.00 | 0.00 | 0.00 | 28 | |
| 20260504211924 | 82 | 270 | 3.0 | 8.0 | 0.00 | 0.00 | 0.00 | 28 | |
| 20260504211909 | 83 | 271 | 3.0 | 10.0 | 0.00 | 0.00 | 0.00 | 28 | |
| 20260504211410 | 82 | 270 | 3.0 | 8.0 | 0.00 | 0.00 | 0.00 | 28 | |
| 20260504211407 | 82 | 270 | 6.0 | 13.0 | 0.00 | 0.00 | 0.00 | 28 | |
| 20260504211121 | 82 | 264 | 7.0 | 13.0 | 0.00 | 0.00 | 0.00 | 29 | |
| 20260504210910 | 82 | 270 | 6.0 | 13.0 | 0.00 | 0.00 | 0.00 | 28 | |
| 20260504210419 | 82 | 262 | 8.0 | 13.0 | 0.00 | 0.00 | 0.00 | 29 | |
| 20260504210410 | 82 | 264 | 7.0 | 13.0 | 0.00 | 0.00 | 0.00 | 29 | |
| 20260504205909 | 82 | 262 | 8.0 | 13.0 | 0.00 | 0.00 | 0.00 | 29 | |
| 20260504205724 | 83 | 273 | 6.0 | 11.0 | 0.00 | 0.00 | 0.00 | 28 | |
| 20260504204909 | 83 | 273 | 6.0 | 11.0 | 0.00 | 0.00 | 0.00 | 28 | |
| 20260504204549 | 83 | 277 | 4.0 | 11.0 | 0.00 | 0.00 | 0.00 | 27 | |
| 20260504204409 | 83 | 277 | 4.0 | 11.0 | 0.00 | 0.00 | 0.00 | 27 | |
| 20260504203912 | 83 | 257 | 4.0 | 11.0 | 0.00 | 0.00 | 0.00 | 27 | |
| 20260504203410 | 83 | 276 | 3.0 | 8.0 | 0.00 | 0.00 | 0.00 | 27 | |
| 20260504202909 | 83 | 300 | 3.0 | 10.0 | 0.00 | 0.00 | 0.00 | 27 | |
| 20260504202410 | 84 | 266 | 5.0 | 10.0 | 0.00 | 0.00 | 0.00 | 29 | |
| 20260504201911 | 84 | 312 | 4.0 | 10.0 | 0.00 | 0.00 | 0.00 | 27 | |
| 20260504201409 | 84 | 292 | 5.0 | 9.0 | 0.00 | 0.00 | 0.00 | 28 | |
| 20260504200909 | 83 | 277 | 5.0 | 9.0 | 0.00 | 0.00 | 0.00 | 28 | |
| 20260504200410 | 83 | 275 | 4.0 | 10.0 | 0.00 | 0.00 | 0.00 | 29 | |
| 20260504200007 | 83 | 253 | 5.0 | 10.0 | 0.00 | 0.00 | 0.00 | 29 | |
| 20260504195909 | 83 | 253 | 5.0 | 10.0 | 0.00 | 0.00 | 0.00 | 29 | |
| 20260504195409 | 83 | 229 | 5.0 | 10.0 | 0.00 | 0.00 | 0.00 | 29 | |
| 20260504194909 | 83 | 240 | 6.0 | 10.0 | 0.00 | 0.00 | 0.00 | 29 | |
| 20260504194409 | 83 | 265 | 5.0 | 10.0 | 0.00 | 0.00 | 0.00 | 29 | |
| 20260504193910 | 83 | 246 | 6.0 | 10.0 | 0.00 | 0.00 | 0.00 | 30 | |
| 20260504193409 | 83 | 240 | 7.0 | 10.0 | 0.00 | 0.00 | 0.00 | 31 | |
| 20260504192909 | 83 | 257 | 5.0 | 8.0 | 0.00 | 0.00 | 0.00 | 30 | |
| 20260504192500 | 84 | 260 | 5.0 | 8.0 | 0.00 | 0.00 | 0.00 | 30 | |
| 20260504192457 | 84 | 257 | 4.0 | 7.0 | 0.00 | 0.00 | 0.00 | 30 | |
| 20260504192409 | 84 | 260 | 5.0 | 8.0 | 0.00 | 0.00 | 0.00 | 30 | |
| 20260504191909 | 84 | 257 | 4.0 | 7.0 | 0.00 | 0.00 | 0.00 | 30 | |
| 20260504191409 | 83 | 264 | 4.0 | 7.0 | 0.00 | 0.00 | 0.00 | 29 | |
| 20260504191101 | 82 | 315 | 1.0 | 5.0 | 0.00 | 0.00 | 0.00 | 27 | |
| 20260504191059 | 82 | 9 | 2.0 | 6.0 | 0.00 | 0.00 | 0.00 | 27 | |
| 20260504190909 | 82 | 315 | 1.0 | 5.0 | 0.00 | 0.00 | 0.00 | 27 | |
| 20260504190409 | 82 | 9 | 2.0 | 6.0 | 0.00 | 0.00 | 0.00 | 27 | |
| 20260504185909 | 82 | 44 | 2.0 | 6.0 | 0.00 | 0.00 | 0.00 | 27 | |
| 20260504185409 | 82 | 268 | 2.0 | 6.0 | 0.00 | 0.00 | 0.00 | 29 | |
| 20260504184909 | 81 | 264 | 3.0 | 7.0 | 0.00 | 0.00 | 0.00 | 30 | |
| 20260504184409 | 80 | 262 | 4.0 | 11.0 | 0.00 | 0.00 | 0.00 | 31 | |
| 20260504183909 | 79 | 246 | 5.0 | 11.0 | 0.00 | 0.00 | 0.00 | 31 | |
| 20260504183410 | 79 | 254 | 5.0 | 12.0 | 0.00 | 0.00 | 0.00 | 30 | |
| 20260504182909 | 79 | 245 | 7.0 | 12.0 | 0.00 | 0.00 | 0.00 | 31 | |
| 20260504182409 | 78 | 246 | 7.0 | 12.0 | 0.00 | 0.00 | 0.00 | 31 | |
| 20260504181909 | 78 | 249 | 8.0 | 13.0 | 0.00 | 0.00 | 0.00 | 31 | |
| 20260504181409 | 79 | 237 | 8.0 | 13.0 | 0.00 | 0.00 | 0.00 | 31 | |
| 20260504180911 | 79 | 238 | 8.0 | 12.0 | 0.00 | 0.00 | 0.00 | 31 | |
| 20260504180411 | 79 | 235 | 7.0 | 12.0 | 0.00 | 0.00 | 0.00 | 31 | |
| 20260504175911 | 79 | 252 | 6.0 | 11.0 | 0.00 | 0.00 | 0.00 | 31 | |
| 20260504175410 | 78 | 252 | 7.0 | 11.0 | 0.00 | 0.00 | 0.00 | 31 | |
| 20260504174910 | 78 | 268 | 6.0 | 13.0 | 0.00 | 0.00 | 0.00 | 30 | |
| 20260504174410 | 77 | 251 | 7.0 | 14.0 | 0.00 | 0.00 | 0.00 | 31 | |
| 20260504173909 | 77 | 256 | 9.0 | 14.0 | 0.00 | 0.00 | 0.00 | 31 | |
| 20260504173409 | 77 | 246 | 7.0 | 12.0 | 0.00 | 0.00 | 0.00 | 32 | |
| 20260504172909 | 77 | 257 | 8.0 | 15.0 | 0.00 | 0.00 | 0.00 | 31 | |
| 20260504172409 | 76 | 260 | 8.0 | 16.0 | 0.00 | 0.00 | 0.00 | 32 | |
| 20260504171909 | 76 | 249 | 9.0 | 16.0 | 0.00 | 0.00 | 0.00 | 32 | |
| 20260504171409 | 77 | 249 | 8.0 | 14.0 | 0.00 | 0.00 | 0.00 | 31 | |
| 20260504170909 | 77 | 255 | 9.0 | 14.0 | 0.00 | 0.00 | 0.00 | 32 | |
| 20260504170409 | 78 | 236 | 8.0 | 14.0 | 0.00 | 0.00 | 0.00 | 32 | |
| 20260504160410 | 79 | 234 | 9.0 | 14.0 | 0.00 | 0.00 | 0.00 | 32 | |
| 20260504150909 | 78 | 240 | 8.0 | 15.0 | 0.00 | 0.00 | 0.00 | 32 | |
| 20260504150719 | 78 | 238 | 7.0 | 15.0 | 0.00 | 0.00 | 0.00 | 32 | |
| 20260504150409 | 78 | 238 | 7.0 | 15.0 | 0.00 | 0.00 | 0.00 | 32 | |
| 20260504150317 | 77 | 230 | 3.0 | 8.0 | 0.00 | 0.00 | 0.00 | 32 | |
| 20260504140911 | 73 | 222 | 0.0 | 0.0 | 0.00 | 0.00 | 0.00 | 33 | |
| 20260504140635 | 73 | 225 | 0.0 | 0.0 | 0.00 | 0.00 | 0.00 | 33 | |
| 20260504140409 | 73 | 225 | 0.0 | 0.0 | 0.00 | 0.00 | 0.00 | 33 | |
| 20260504140255 | 72 | 223 | 0.0 | 0.0 | 0.00 | 0.00 | 0.00 | 33 | |
| 20260504130409 | 63 | 108 | 0.0 | 0.0 | 0.00 | 0.00 | 0.00 | 34 | |
| 20260504130314 | 63 | 328 | 0.0 | 0.0 | 0.00 | 0.00 | 0.00 | 33 | |
| 20260504120157 | 64 | 330 | 0.0 | 0.0 | 0.00 | 0.00 | 0.00 | 30 | |
| 20260504110654 | 64 | 90 | 0.0 | 0.0 | 0.00 | 0.00 | 0.00 | 28 | |
| 20260504110409 | 64 | 90 | 0.0 | 0.0 | 0.00 | 0.00 | 0.00 | 28 | |
| 20260504110222 | 64 | 122 | 0.0 | 0.0 | 0.00 | 0.00 | 0.00 | 32 | |
| 20260504100409 | 64 | 311 | 0.0 | 0.0 | 0.00 | 0.00 | 0.00 | 27 | |
| 20260504100238 | 64 | 335 | 0.0 | 0.0 | 0.00 | 0.00 | 0.00 | 26 | |
| 20260504081926 | 65 | 59 | 0.0 | 0.0 | 0.00 | 0.00 | 0.00 | 25 | |
| 20260504081909 | 65 | 38 | 0.0 | 0.0 | 0.00 | 0.00 | 0.00 | 25 | |
| 20260504081409 | 65 | 59 | 0.0 | 0.0 | 0.00 | 0.00 | 0.00 | 25 | |
| 20260504081337 | 65 | 309 | 0.0 | 0.0 | 0.00 | 0.00 | 0.00 | 25 | |
| 20260504080910 | 65 | 309 | 0.0 | 0.0 | 0.00 | 0.00 | 0.00 | 25 | |
| 20260504080755 | 65 | 54 | 0.0 | 0.0 | 0.00 | 0.00 | 0.00 | 25 | |
| 20260504080409 | 65 | 54 | 0.0 | 0.0 | 0.00 | 0.00 | 0.00 | 25 | |
| 20260504080330 | 65 | 59 | 0.0 | 0.0 | 0.00 | 0.00 | 0.00 | 25 | |
| 20260504070409 | 67 | 71 | 0.0 | 0.0 | 0.00 | 0.00 | 0.00 | 25 | |
| 20260504060238 | 68 | 260 | 0.0 | 0.0 | 0.00 | 0.00 | 0.00 | 26 | |
| 20260504050751 | 70 | 320 | 0.0 | 0.0 | 0.00 | 0.00 | 0.00 | 24 | |
| 20260504050409 | 70 | 320 | 0.0 | 0.0 | 0.00 | 0.00 | 0.00 | 24 | |
| 20260504050315 | 70 | 289 | 0.0 | 0.0 | 0.00 | 0.00 | 0.00 | 24 | |
| 20260504045909 | 70 | 289 | 0.0 | 0.0 | 0.00 | 0.00 | 0.00 | 24 | |
| 20260504045831 | 70 | 273 | 0.0 | 0.0 | 0.00 | 0.00 | 0.00 | 24 | |
| 20260504045440 | 71 | 267 | 0.0 | 1.0 | 0.00 | 0.00 | 0.00 | 24 | |
| 20260504045409 | 70 | 273 | 0.0 | 0.0 | 0.00 | 0.00 | 0.00 | 24 | |
| 20260504044956 | 71 | 249 | 0.0 | 5.0 | 0.00 | 0.00 | 0.00 | 24 | |
| 20260504044921 | 71 | 249 | 0.0 | 5.0 | 0.00 | 0.00 | 0.00 | 24 | |
| 20260504044909 | 71 | 267 | 0.0 | 1.0 | 0.00 | 0.00 | 0.00 | 24 | |
| 20260504044409 | 71 | 249 | 0.0 | 5.0 | 0.00 | 0.00 | 0.00 | 24 | |
| 20260504044315 | 71 | 251 | 0.0 | 5.0 | 0.00 | 0.00 | 0.00 | 24 | |
| 20260504043909 | 71 | 251 | 0.0 | 5.0 | 0.00 | 0.00 | 0.00 | 24 | |
| 20260504043757 | 72 | 243 | 0.0 | 8.0 | 0.00 | 0.00 | 0.00 | 24 | |
| 20260504043409 | 72 | 243 | 0.0 | 8.0 | 0.00 | 0.00 | 0.00 | 24 | |
| 20260504043326 | 72 | 230 | 0.0 | 8.0 | 0.00 | 0.00 | 0.00 | 24 | |
| 20260504042909 | 72 | 230 | 0.0 | 8.0 | 0.00 | 0.00 | 0.00 | 24 | |
| 20260504042409 | 72 | 233 | 5.0 | 10.0 | 0.00 | 0.00 | 0.00 | 23 | |
| 20260504041909 | 72 | 233 | 5.0 | 10.0 | 0.00 | 0.00 | 0.00 | 23 | |
| 20260504041821 | 72 | 240 | 0.0 | 6.0 | 0.00 | 0.00 | 0.00 | 23 | |
| 20260504041410 | 72 | 230 | 1.0 | 6.0 | 0.00 | 0.00 | 0.00 | 23 | |
| 20260504040911 | 73 | 237 | 0.0 | 6.0 | 0.00 | 0.00 | 0.00 | 23 | |
| 20260504040909 | 72 | 230 | 1.0 | 6.0 | 0.00 | 0.00 | 0.00 | 23 | |
| 20260504040829 | 73 | 237 | 0.0 | 6.0 | 0.00 | 0.00 | 0.00 | 23 | |
| 20260504040439 | 73 | 246 | 1.0 | 7.0 | 0.00 | 0.00 | 0.00 | 23 | |
| 20260504040409 | 73 | 237 | 0.0 | 6.0 | 0.00 | 0.00 | 0.00 | 23 | |
| 20260504040004 | 73 | 234 | 2.0 | 7.0 | 0.00 | 0.00 | 0.00 | 23 | |
| 20260504035909 | 73 | 246 | 1.0 | 7.0 | 0.00 | 0.00 | 0.00 | 23 | |
| 20260504035411 | 74 | 238 | 2.0 | 8.0 | 0.00 | 0.00 | 0.00 | 23 | |
| 20260504034909 | 74 | 238 | 2.0 | 8.0 | 0.00 | 0.00 | 0.00 | 23 | |
| 20260504034843 | 74 | 235 | 1.0 | 8.0 | 0.00 | 0.00 | 0.00 | 23 | |
| 20260504034409 | 74 | 235 | 1.0 | 8.0 | 0.00 | 0.00 | 0.00 | 23 | |
| 20260504034346 | 74 | 232 | 3.0 | 8.0 | 0.00 | 0.00 | 0.00 | 23 | |
| 20260504033909 | 74 | 232 | 3.0 | 8.0 | 0.00 | 0.00 | 0.00 | 23 | |
| 20260504033807 | 74 | 233 | 5.0 | 10.0 | 0.00 | 0.00 | 0.00 | 23 | |
| 20260504033410 | 74 | 236 | 6.0 | 10.0 | 0.00 | 0.00 | 0.00 | 23 | |
| 20260504033008 | 74 | 240 | 4.0 | 10.0 | 0.00 | 0.00 | 0.00 | 24 | |
| 20260504032917 | 74 | 240 | 4.0 | 10.0 | 0.00 | 0.00 | 0.00 | 24 | |
| 20260504032909 | 74 | 236 | 6.0 | 10.0 | 0.00 | 0.00 | 0.00 | 23 | |
| 20260504032410 | 74 | 240 | 4.0 | 10.0 | 0.00 | 0.00 | 0.00 | 24 | |
| 20260504032358 | 75 | 236 | 6.0 | 12.0 | 0.00 | 0.00 | 0.00 | 23 | |
| 20260504031916 | 75 | 236 | 8.0 | 12.0 | 0.00 | 0.00 | 0.00 | 23 | |
| 20260504031909 | 75 | 236 | 6.0 | 12.0 | 0.00 | 0.00 | 0.00 | 23 | |
| 20260504031453 | 75 | 233 | 7.0 | 12.0 | 0.00 | 0.00 | 0.00 | 23 | |
| 20260504031415 | 75 | 233 | 7.0 | 12.0 | 0.00 | 0.00 | 0.00 | 23 | |
| 20260504031411 | 75 | 236 | 8.0 | 12.0 | 0.00 | 0.00 | 0.00 | 23 | |
| 20260504030910 | 75 | 233 | 7.0 | 12.0 | 0.00 | 0.00 | 0.00 | 23 | |
| 20260504030409 | 75 | 240 | 7.0 | 12.0 | 0.00 | 0.00 | 0.00 | 24 | |
| 20260504030329 | 75 | 241 | 5.0 | 10.0 | 0.00 | 0.00 | 0.00 | 24 | |
| 20260504025910 | 76 | 240 | 6.0 | 11.0 | 0.00 | 0.00 | 0.00 | 24 | |
| 20260504025409 | 76 | 240 | 6.0 | 11.0 | 0.00 | 0.00 | 0.00 | 24 | |
| 20260504024549 | 77 | 225 | 9.0 | 14.0 | 0.00 | 0.00 | 0.00 | 24 | |
| 20260504024411 | 77 | 225 | 9.0 | 14.0 | 0.00 | 0.00 | 0.00 | 24 | |
| 20260504024301 | 77 | 228 | 8.0 | 14.0 | 0.00 | 0.00 | 0.00 | 24 | |
| 20260504023909 | 77 | 228 | 8.0 | 14.0 | 0.00 | 0.00 | 0.00 | 24 | |
| 20260504023602 | 78 | 237 | 9.0 | 14.0 | 0.00 | 0.00 | 0.00 | 23 | |
| 20260504023410 | 78 | 237 | 9.0 | 14.0 | 0.00 | 0.00 | 0.00 | 23 | |
| 20260504023117 | 78 | 238 | 8.0 | 12.0 | 0.00 | 0.00 | 0.00 | 24 | |
| 20260504022909 | 78 | 238 | 8.0 | 12.0 | 0.00 | 0.00 | 0.00 | 24 | |
| 20260504022705 | 78 | 229 | 8.0 | 13.0 | 0.00 | 0.00 | 0.00 | 24 | |
| 20260504022409 | 78 | 229 | 8.0 | 13.0 | 0.00 | 0.00 | 0.00 | 24 | |
| 20260504022128 | 78 | 228 | 9.0 | 13.0 | 0.00 | 0.00 | 0.00 | 24 | |
| 20260504021909 | 78 | 228 | 9.0 | 13.0 | 0.00 | 0.00 | 0.00 | 24 | |
| 20260504021712 | 79 | 231 | 7.0 | 12.0 | 0.00 | 0.00 | 0.00 | 24 | |
| 20260504021409 | 79 | 231 | 7.0 | 12.0 | 0.00 | 0.00 | 0.00 | 24 | |
| 20260504021335 | 79 | 232 | 6.0 | 10.0 | 0.00 | 0.00 | 0.00 | 25 | |
| 20260504020910 | 79 | 232 | 6.0 | 10.0 | 0.00 | 0.00 | 0.00 | 25 | |
| 20260504020738 | 79 | 232 | 7.0 | 13.0 | 0.00 | 0.00 | 0.00 | 25 | |
| 20260504020409 | 79 | 232 | 7.0 | 13.0 | 0.00 | 0.00 | 0.00 | 25 | |
| 20260504020327 | 79 | 233 | 6.0 | 16.0 | 0.00 | 0.00 | 0.00 | 25 | |
| 20260504015934 | 80 | 232 | 9.0 | 16.0 | 0.00 | 0.00 | 0.00 | 25 | |
| 20260504015909 | 79 | 233 | 6.0 | 16.0 | 0.00 | 0.00 | 0.00 | 25 | |
| 20260504015409 | 80 | 232 | 9.0 | 16.0 | 0.00 | 0.00 | 0.00 | 25 | |
| 20260504014756 | 81 | 236 | 9.0 | 15.0 | 0.00 | 0.00 | 0.00 | 26 | |
| 20260504014409 | 81 | 236 | 9.0 | 15.0 | 0.00 | 0.00 | 0.00 | 26 | |
| 20260504014311 | 81 | 240 | 7.0 | 15.0 | 0.00 | 0.00 | 0.00 | 26 | |
| 20260504013909 | 81 | 240 | 7.0 | 15.0 | 0.00 | 0.00 | 0.00 | 26 | |
| 20260504013720 | 82 | 226 | 8.0 | 13.0 | 0.00 | 0.00 | 0.00 | 26 | |
| 20260504013409 | 82 | 226 | 8.0 | 13.0 | 0.00 | 0.00 | 0.00 | 26 | |
| 20260504013357 | 83 | 234 | 9.0 | 14.0 | 0.00 | 0.00 | 0.00 | 25 | |
| 20260504012909 | 83 | 234 | 9.0 | 14.0 | 0.00 | 0.00 | 0.00 | 25 | |
| 20260504012753 | 83 | 233 | 10.0 | 18.0 | 0.00 | 0.00 | 0.00 | 26 | |
| 20260504012409 | 83 | 233 | 10.0 | 18.0 | 0.00 | 0.00 | 0.00 | 26 | |
| 20260504012238 | 84 | 232 | 9.0 | 19.0 | 0.00 | 0.00 | 0.00 | 26 | |
| 20260504011910 | 84 | 232 | 9.0 | 19.0 | 0.00 | 0.00 | 0.00 | 26 | |
| 20260504011722 | 85 | 235 | 11.0 | 19.0 | 0.00 | 0.00 | 0.00 | 26 | |
| 20260504011411 | 85 | 235 | 11.0 | 19.0 | 0.00 | 0.00 | 0.00 | 26 | |
| 20260504011329 | 86 | 238 | 9.0 | 16.0 | 0.00 | 0.00 | 0.00 | 26 | |
| 20260504010910 | 86 | 238 | 9.0 | 16.0 | 0.00 | 0.00 | 0.00 | 26 | |
| 20260504010743 | 86 | 232 | 12.0 | 16.0 | 0.00 | 0.00 | 0.00 | 27 | |
| 20260504010409 | 86 | 232 | 12.0 | 16.0 | 0.00 | 0.00 | 0.00 | 27 | |
| 20260504010253 | 85 | 245 | 9.0 | 19.0 | 0.00 | 0.00 | 0.00 | 26 | |
| 20260504005909 | 85 | 245 | 9.0 | 19.0 | 0.00 | 0.00 | 0.00 | 26 | |
| 20260504005817 | 85 | 244 | 9.0 | 19.0 | 0.00 | 0.00 | 0.00 | 27 | |
| 20260504005409 | 85 | 244 | 9.0 | 19.0 | 0.00 | 0.00 | 0.00 | 27 | |
| 20260504005212 | 85 | 240 | 10.0 | 20.0 | 0.00 | 0.00 | 0.00 | 28 | |
| 20260504004911 | 85 | 240 | 10.0 | 20.0 | 0.00 | 0.00 | 0.00 | 28 | |
| 20260504004811 | 84 | 233 | 12.0 | 20.0 | 0.00 | 0.00 | 0.00 | 27 | |
| 20260504004410 | 84 | 233 | 12.0 | 20.0 | 0.00 | 0.00 | 0.00 | 27 | |
| 20260504004252 | 84 | 234 | 11.0 | 18.0 | 0.00 | 0.00 | 0.00 | 28 | |
| 20260504003909 | 84 | 234 | 11.0 | 18.0 | 0.00 | 0.00 | 0.00 | 28 | |
| 20260504003812 | 85 | 229 | 12.0 | 18.0 | 0.00 | 0.00 | 0.00 | 29 | |
| 20260504003411 | 85 | 229 | 12.0 | 18.0 | 0.00 | 0.00 | 0.00 | 29 | |
| 20260504003327 | 86 | 231 | 10.0 | 18.0 | 0.00 | 0.00 | 0.00 | 29 | |
| 20260504002909 | 86 | 231 | 10.0 | 18.0 | 0.00 | 0.00 | 0.00 | 29 | |
| 20260504002816 | 87 | 235 | 11.0 | 23.0 | 0.00 | 0.00 | 0.00 | 29 | |
| 20260504002410 | 87 | 235 | 11.0 | 23.0 | 0.00 | 0.00 | 0.00 | 29 | |
| 20260504002320 | 88 | 238 | 14.0 | 23.0 | 0.00 | 0.00 | 0.00 | 30 | |
| 20260504001909 | 88 | 238 | 14.0 | 23.0 | 0.00 | 0.00 | 0.00 | 30 | |
| 20260504001813 | 89 | 235 | 11.0 | 17.0 | 0.00 | 0.00 | 0.00 | 31 | |
| 20260504001410 | 90 | 240 | 11.0 | 20.0 | 0.00 | 0.00 | 0.00 | 31 | |
| 20260504000911 | 90 | 240 | 11.0 | 20.0 | 0.00 | 0.00 | 0.00 | 31 | |
| 20260504000810 | 90 | 231 | 13.0 | 20.0 | 0.00 | 0.00 | 0.00 | 32 | |
| 20260504000409 | 90 | 231 | 13.0 | 20.0 | 0.00 | 0.00 | 0.00 | 32 | |
| 20260504000358 | 91 | 240 | 11.0 | 18.0 | 0.00 | 0.00 | 0.00 | 32 | |
| 20260503235910 | 91 | 240 | 11.0 | 18.0 | 0.00 | 0.00 | 0.00 | 32 | |
| 20260503235756 | 91 | 250 | 11.0 | 20.0 | 0.00 | 0.00 | 0.00 | 33 | |
| 20260503235409 | 91 | 250 | 11.0 | 20.0 | 0.00 | 0.00 | 0.00 | 33 | |
| 20260503235403 | 91 | 243 | 12.0 | 20.0 | 0.00 | 0.00 | 0.00 | 33 | |
| 20260503234910 | 91 | 243 | 12.0 | 20.0 | 0.00 | 0.00 | 0.00 | 33 | |
| 20260503234844 | 91 | 238 | 11.0 | 19.0 | 0.00 | 0.00 | 0.00 | 33 | |
| 20260503234409 | 91 | 238 | 11.0 | 19.0 | 0.00 | 0.00 | 0.00 | 33 | |
| 20260503234349 | 90 | 258 | 10.0 | 18.0 | 0.00 | 0.00 | 0.00 | 33 | |
| 20260503233909 | 90 | 258 | 10.0 | 18.0 | 0.00 | 0.00 | 0.00 | 33 | |
| 20260503233755 | 90 | 233 | 10.0 | 18.0 | 0.00 | 0.00 | 0.00 | 33 | |
| 20260503233409 | 90 | 233 | 10.0 | 18.0 | 0.00 | 0.00 | 0.00 | 33 | |
| 20260503233316 | 91 | 243 | 12.0 | 18.0 | 0.00 | 0.00 | 0.00 | 33 | |
| 20260503233054 | 92 | 232 | 11.0 | 16.0 | 0.00 | 0.00 | 0.00 | 33 | |
| 20260503232909 | 91 | 243 | 12.0 | 18.0 | 0.00 | 0.00 | 0.00 | 33 | |
| 20260503232409 | 92 | 232 | 11.0 | 16.0 | 0.00 | 0.00 | 0.00 | 33 | |
| 20260503231909 | 92 | 236 | 11.0 | 16.0 | 0.00 | 0.00 | 0.00 | 33 | |
| 20260503231822 | 92 | 245 | 9.0 | 16.0 | 0.00 | 0.00 | 0.00 | 33 | |
| 20260503231409 | 92 | 245 | 9.0 | 16.0 | 0.00 | 0.00 | 0.00 | 33 | |
| 20260503231336 | 92 | 234 | 10.0 | 16.0 | 0.00 | 0.00 | 0.00 | 33 | |
| 20260503230910 | 92 | 234 | 10.0 | 16.0 | 0.00 | 0.00 | 0.00 | 33 | |
| 20260503230812 | 91 | 231 | 8.0 | 14.0 | 0.00 | 0.00 | 0.00 | 33 | |
| 20260503230409 | 91 | 231 | 8.0 | 14.0 | 0.00 | 0.00 | 0.00 | 33 | |
| 20260503230254 | 91 | 251 | 9.0 | 15.0 | 0.00 | 0.00 | 0.00 | 33 | |
| 20260503225909 | 91 | 251 | 9.0 | 15.0 | 0.00 | 0.00 | 0.00 | 33 | |
| 20260503225754 | 91 | 233 | 9.0 | 15.0 | 0.00 | 0.00 | 0.00 | 34 | |
| 20260503225532 | 91 | 215 | 10.0 | 16.0 | 0.00 | 0.00 | 0.00 | 34 | |
| 20260503225409 | 91 | 233 | 9.0 | 15.0 | 0.00 | 0.00 | 0.00 | 34 | |
| 20260503224909 | 91 | 215 | 10.0 | 16.0 | 0.00 | 0.00 | 0.00 | 34 | |
| 20260503224849 | 92 | 222 | 10.0 | 16.0 | 0.00 | 0.00 | 0.00 | 33 | |
| 20260503224458 | 92 | 229 | 8.0 | 15.0 | 0.00 | 0.00 | 0.00 | 34 | |
| 20260503224417 | 92 | 229 | 8.0 | 15.0 | 0.00 | 0.00 | 0.00 | 34 | |
| 20260503224409 | 92 | 222 | 10.0 | 16.0 | 0.00 | 0.00 | 0.00 | 33 | |
| 20260503223909 | 92 | 229 | 8.0 | 15.0 | 0.00 | 0.00 | 0.00 | 34 | |
| 20260503223755 | 91 | 221 | 6.0 | 12.0 | 0.00 | 0.00 | 0.00 | 33 | |
| 20260503223409 | 91 | 221 | 6.0 | 12.0 | 0.00 | 0.00 | 0.00 | 33 | |
| 20260503223238 | 90 | 198 | 5.0 | 12.0 | 0.00 | 0.00 | 0.00 | 33 | |
| 20260503222909 | 90 | 198 | 5.0 | 12.0 | 0.00 | 0.00 | 0.00 | 33 | |
| 20260503222815 | 90 | 221 | 8.0 | 12.0 | 0.00 | 0.00 | 0.00 | 34 | |
| 20260503222409 | 90 | 221 | 8.0 | 12.0 | 0.00 | 0.00 | 0.00 | 34 | |
| 20260503222255 | 90 | 239 | 5.0 | 8.0 | 0.00 | 0.00 | 0.00 | 34 | |
| 20260503221909 | 90 | 239 | 5.0 | 8.0 | 0.00 | 0.00 | 0.00 | 34 | |
| 20260503221809 | 90 | 226 | 5.0 | 10.0 | 0.00 | 0.00 | 0.00 | 34 | |
| 20260503221411 | 89 | 229 | 6.0 | 11.0 | 0.00 | 0.00 | 0.00 | 34 | |
| 20260503221409 | 90 | 226 | 5.0 | 10.0 | 0.00 | 0.00 | 0.00 | 34 |